<?xml version="1.0" encoding="UTF-8" standalone="no" ?>
<gpx xmlns="http://www.topografix.com/GPX/1/1" xmlns:xsi="http://www.w3.org/2001/XMLSchema-instance" xsi:schemaLocation="http://www.topografix.com/GPX/1/1 http://www.topografix.com/GPX/1/1/gpx.xsd" version="1.1" creator="VisuGPX - https://www.visugpx.com">
  <metadata>
    <name>touquet</name>
    <desc><![CDATA[visite le touquet 21 juin 13]]></desc>
  </metadata>
  <trk>
    <name><![CDATA[touquet]]></name>
    <trkseg>
      <trkpt lat="50.51934" lon="1.59385">
        <ele>7</ele>
        <time>2013-06-21T10:47:49Z</time>
      </trkpt>
      <trkpt lat="50.51975" lon="1.59321">
        <ele>7</ele>
        <time>2013-06-21T10:47:49Z</time>
      </trkpt>
      <trkpt lat="50.52008" lon="1.59268">
        <ele>7</ele>
        <time>2013-06-21T10:47:49Z</time>
      </trkpt>
      <trkpt lat="50.5205" lon="1.59266">
        <ele>6.7</ele>
        <time>2013-06-21T10:47:49Z</time>
      </trkpt>
      <trkpt lat="50.52089" lon="1.59239">
        <ele>7</ele>
        <time>2013-06-21T10:47:49Z</time>
      </trkpt>
      <trkpt lat="50.52124" lon="1.59255">
        <ele>7</ele>
        <time>2013-06-21T10:47:49Z</time>
      </trkpt>
      <trkpt lat="50.5216" lon="1.59211">
        <ele>7</ele>
        <time>2013-06-21T10:47:49Z</time>
      </trkpt>
      <trkpt lat="50.52196" lon="1.59253">
        <ele>6</ele>
        <time>2013-06-21T10:47:49Z</time>
      </trkpt>
      <trkpt lat="50.5222" lon="1.59312">
        <ele>6.1</ele>
        <time>2013-06-21T10:47:49Z</time>
      </trkpt>
      <trkpt lat="50.52267" lon="1.59321">
        <ele>6</ele>
        <time>2013-06-21T10:47:49Z</time>
      </trkpt>
      <trkpt lat="50.52313" lon="1.59321">
        <ele>6</ele>
        <time>2013-06-21T10:47:49Z</time>
      </trkpt>
      <trkpt lat="50.52363" lon="1.59322">
        <ele>6</ele>
        <time>2013-06-21T10:47:49Z</time>
      </trkpt>
      <trkpt lat="50.52363" lon="1.59266">
        <ele>6</ele>
        <time>2013-06-21T10:47:49Z</time>
      </trkpt>
      <trkpt lat="50.52365" lon="1.59272">
        <ele>6</ele>
        <time>2013-06-21T10:47:49Z</time>
      </trkpt>
      <trkpt lat="50.52354" lon="1.59328">
        <ele>6</ele>
        <time>2013-06-21T10:47:49Z</time>
      </trkpt>
      <trkpt lat="50.52305" lon="1.59332">
        <ele>6</ele>
        <time>2013-06-21T10:47:49Z</time>
      </trkpt>
      <trkpt lat="50.52259" lon="1.59335">
        <ele>6</ele>
        <time>2013-06-21T10:47:49Z</time>
      </trkpt>
      <trkpt lat="50.52216" lon="1.59314">
        <ele>6.3</ele>
        <time>2013-06-21T10:47:49Z</time>
      </trkpt>
      <trkpt lat="50.52191" lon="1.59258">
        <ele>6.1</ele>
        <time>2013-06-21T10:47:49Z</time>
      </trkpt>
      <trkpt lat="50.52195" lon="1.59197">
        <ele>7</ele>
        <time>2013-06-21T10:47:49Z</time>
      </trkpt>
      <trkpt lat="50.52198" lon="1.59152">
        <ele>7.2</ele>
        <time>2013-06-21T10:47:49Z</time>
      </trkpt>
      <trkpt lat="50.52207" lon="1.59111">
        <ele>7</ele>
        <time>2013-06-21T10:47:49Z</time>
      </trkpt>
      <trkpt lat="50.52203" lon="1.59054">
        <ele>9.8</ele>
        <time>2013-06-21T10:47:49Z</time>
      </trkpt>
      <trkpt lat="50.52221" lon="1.58983">
        <ele>8.2</ele>
        <time>2013-06-21T10:47:49Z</time>
      </trkpt>
      <trkpt lat="50.52234" lon="1.58948">
        <ele>8.1</ele>
        <time>2013-06-21T10:47:49Z</time>
      </trkpt>
      <trkpt lat="50.52253" lon="1.58893">
        <ele>8.1</ele>
        <time>2013-06-21T10:47:49Z</time>
      </trkpt>
      <trkpt lat="50.52263" lon="1.58825">
        <ele>9</ele>
        <time>2013-06-21T10:47:49Z</time>
      </trkpt>
      <trkpt lat="50.52279" lon="1.58773">
        <ele>9.2</ele>
        <time>2013-06-21T10:47:49Z</time>
      </trkpt>
      <trkpt lat="50.5231" lon="1.58729">
        <ele>10.8</ele>
        <time>2013-06-21T10:47:49Z</time>
      </trkpt>
      <trkpt lat="50.52335" lon="1.58672">
        <ele>12</ele>
        <time>2013-06-21T10:47:49Z</time>
      </trkpt>
      <trkpt lat="50.52351" lon="1.58608">
        <ele>12</ele>
        <time>2013-06-21T10:47:49Z</time>
      </trkpt>
      <trkpt lat="50.52377" lon="1.58547">
        <ele>12</ele>
        <time>2013-06-21T10:47:49Z</time>
      </trkpt>
      <trkpt lat="50.52393" lon="1.58503">
        <ele>11.9</ele>
        <time>2013-06-21T10:47:49Z</time>
      </trkpt>
      <trkpt lat="50.52411" lon="1.58442">
        <ele>11.8</ele>
        <time>2013-06-21T10:47:49Z</time>
      </trkpt>
      <trkpt lat="50.5243" lon="1.58388">
        <ele>12</ele>
        <time>2013-06-21T10:47:49Z</time>
      </trkpt>
      <trkpt lat="50.52446" lon="1.5833">
        <ele>12</ele>
        <time>2013-06-21T10:47:49Z</time>
      </trkpt>
      <trkpt lat="50.52474" lon="1.58285">
        <ele>11.2</ele>
        <time>2013-06-21T10:47:49Z</time>
      </trkpt>
      <trkpt lat="50.52487" lon="1.5821">
        <ele>10</ele>
        <time>2013-06-21T10:47:49Z</time>
      </trkpt>
      <trkpt lat="50.52474" lon="1.5815">
        <ele>10</ele>
        <time>2013-06-21T10:47:49Z</time>
      </trkpt>
      <trkpt lat="50.52457" lon="1.5809">
        <ele>9</ele>
        <time>2013-06-21T10:47:49Z</time>
      </trkpt>
      <trkpt lat="50.52416" lon="1.58068">
        <ele>8.4</ele>
        <time>2013-06-21T10:47:49Z</time>
      </trkpt>
      <trkpt lat="50.52373" lon="1.58053">
        <ele>9.5</ele>
        <time>2013-06-21T10:47:49Z</time>
      </trkpt>
      <trkpt lat="50.52324" lon="1.58037">
        <ele>9.6</ele>
        <time>2013-06-21T10:47:49Z</time>
      </trkpt>
      <trkpt lat="50.52279" lon="1.58021">
        <ele>9.7</ele>
        <time>2013-06-21T10:47:49Z</time>
      </trkpt>
      <trkpt lat="50.52232" lon="1.58007">
        <ele>9.9</ele>
        <time>2013-06-21T10:47:49Z</time>
      </trkpt>
      <trkpt lat="50.52185" lon="1.57998">
        <ele>10.2</ele>
        <time>2013-06-21T10:47:49Z</time>
      </trkpt>
      <trkpt lat="50.52162" lon="1.5804">
        <ele>11</ele>
        <time>2013-06-21T10:47:49Z</time>
      </trkpt>
      <trkpt lat="50.52116" lon="1.58041">
        <ele>11.4</ele>
        <time>2013-06-21T10:47:49Z</time>
      </trkpt>
      <trkpt lat="50.52088" lon="1.58071">
        <ele>12.5</ele>
        <time>2013-06-21T10:47:49Z</time>
      </trkpt>
      <trkpt lat="50.52075" lon="1.5814">
        <ele>14</ele>
        <time>2013-06-21T10:47:49Z</time>
      </trkpt>
      <trkpt lat="50.52069" lon="1.58212">
        <ele>14</ele>
        <time>2013-06-21T10:47:49Z</time>
      </trkpt>
      <trkpt lat="50.52066" lon="1.58276">
        <ele>14</ele>
        <time>2013-06-21T10:47:49Z</time>
      </trkpt>
      <trkpt lat="50.5206" lon="1.58347">
        <ele>13.6</ele>
        <time>2013-06-21T10:47:49Z</time>
      </trkpt>
      <trkpt lat="50.52048" lon="1.58403">
        <ele>12.9</ele>
        <time>2013-06-21T10:47:49Z</time>
      </trkpt>
      <trkpt lat="50.52055" lon="1.58404">
        <ele>13</ele>
        <time>2013-06-21T10:47:49Z</time>
      </trkpt>
      <trkpt lat="50.52044" lon="1.58424">
        <ele>12.6</ele>
        <time>2013-06-21T10:47:49Z</time>
      </trkpt>
      <trkpt lat="50.52033" lon="1.58495">
        <ele>11.2</ele>
        <time>2013-06-21T10:47:49Z</time>
      </trkpt>
      <trkpt lat="50.52027" lon="1.58554">
        <ele>11</ele>
        <time>2013-06-21T10:47:49Z</time>
      </trkpt>
      <trkpt lat="50.52021" lon="1.5862">
        <ele>10</ele>
        <time>2013-06-21T10:47:49Z</time>
      </trkpt>
      <trkpt lat="50.52017" lon="1.58624">
        <ele>10</ele>
        <time>2013-06-21T10:47:49Z</time>
      </trkpt>
      <trkpt lat="50.52026" lon="1.58679">
        <ele>9</ele>
        <time>2013-06-21T10:47:49Z</time>
      </trkpt>
      <trkpt lat="50.52017" lon="1.58751">
        <ele>8.6</ele>
        <time>2013-06-21T10:47:49Z</time>
      </trkpt>
      <trkpt lat="50.52048" lon="1.58776">
        <ele>8</ele>
        <time>2013-06-21T10:47:49Z</time>
      </trkpt>
      <trkpt lat="50.52078" lon="1.58746">
        <ele>8</ele>
        <time>2013-06-21T10:47:49Z</time>
      </trkpt>
      <trkpt lat="50.52085" lon="1.58691">
        <ele>8.2</ele>
        <time>2013-06-21T10:47:49Z</time>
      </trkpt>
      <trkpt lat="50.52118" lon="1.58675">
        <ele>9</ele>
        <time>2013-06-21T10:47:49Z</time>
      </trkpt>
      <trkpt lat="50.52165" lon="1.58697">
        <ele>8.1</ele>
        <time>2013-06-21T10:47:49Z</time>
      </trkpt>
      <trkpt lat="50.52199" lon="1.58667">
        <ele>8.2</ele>
        <time>2013-06-21T10:47:49Z</time>
      </trkpt>
      <trkpt lat="50.52216" lon="1.58607">
        <ele>9.8</ele>
        <time>2013-06-21T10:47:49Z</time>
      </trkpt>
      <trkpt lat="50.52242" lon="1.58565">
        <ele>10.9</ele>
        <time>2013-06-21T10:47:49Z</time>
      </trkpt>
      <trkpt lat="50.5227" lon="1.586">
        <ele>10.8</ele>
        <time>2013-06-21T10:47:49Z</time>
      </trkpt>
      <trkpt lat="50.52286" lon="1.58533">
        <ele>11.9</ele>
        <time>2013-06-21T10:47:49Z</time>
      </trkpt>
      <trkpt lat="50.52303" lon="1.5847">
        <ele>12.1</ele>
        <time>2013-06-21T10:47:49Z</time>
      </trkpt>
      <trkpt lat="50.52268" lon="1.58433">
        <ele>13</ele>
        <time>2013-06-21T10:47:49Z</time>
      </trkpt>
      <trkpt lat="50.52266" lon="1.58404">
        <ele>13</ele>
        <time>2013-06-21T10:47:49Z</time>
      </trkpt>
      <trkpt lat="50.52276" lon="1.58342">
        <ele>12.1</ele>
        <time>2013-06-21T10:47:49Z</time>
      </trkpt>
      <trkpt lat="50.52291" lon="1.58276">
        <ele>12</ele>
        <time>2013-06-21T10:47:49Z</time>
      </trkpt>
      <trkpt lat="50.52303" lon="1.58205">
        <ele>12</ele>
        <time>2013-06-21T10:47:49Z</time>
      </trkpt>
      <trkpt lat="50.52327" lon="1.58142">
        <ele>10.9</ele>
        <time>2013-06-21T10:47:49Z</time>
      </trkpt>
      <trkpt lat="50.52355" lon="1.58119">
        <ele>10.6</ele>
        <time>2013-06-21T10:47:49Z</time>
      </trkpt>
      <trkpt lat="50.52395" lon="1.58136">
        <ele>10.1</ele>
        <time>2013-06-21T10:47:49Z</time>
      </trkpt>
      <trkpt lat="50.52432" lon="1.58175">
        <ele>10.1</ele>
        <time>2013-06-21T10:47:49Z</time>
      </trkpt>
      <trkpt lat="50.52474" lon="1.582">
        <ele>10</ele>
        <time>2013-06-21T10:47:49Z</time>
      </trkpt>
      <trkpt lat="50.5252" lon="1.58189">
        <ele>10</ele>
        <time>2013-06-21T10:47:49Z</time>
      </trkpt>
      <trkpt lat="50.52561" lon="1.58164">
        <ele>10</ele>
        <time>2013-06-21T10:47:49Z</time>
      </trkpt>
      <trkpt lat="50.52603" lon="1.58153">
        <ele>9.3</ele>
        <time>2013-06-21T10:47:49Z</time>
      </trkpt>
      <trkpt lat="50.52647" lon="1.58171">
        <ele>9.1</ele>
        <time>2013-06-21T10:47:49Z</time>
      </trkpt>
      <trkpt lat="50.52691" lon="1.58199">
        <ele>9</ele>
        <time>2013-06-21T10:47:49Z</time>
      </trkpt>
      <trkpt lat="50.52734" lon="1.58228">
        <ele>9</ele>
        <time>2013-06-21T10:47:49Z</time>
      </trkpt>
      <trkpt lat="50.5277" lon="1.58237">
        <ele>8.6</ele>
        <time>2013-06-21T10:47:49Z</time>
      </trkpt>
      <trkpt lat="50.52801" lon="1.58194">
        <ele>10</ele>
        <time>2013-06-21T10:47:49Z</time>
      </trkpt>
      <trkpt lat="50.52841" lon="1.58165">
        <ele>11.6</ele>
        <time>2013-06-21T10:47:49Z</time>
      </trkpt>
      <trkpt lat="50.52878" lon="1.58192">
        <ele>14</ele>
        <time>2013-06-21T10:47:49Z</time>
      </trkpt>
      <trkpt lat="50.5292" lon="1.58227">
        <ele>14.4</ele>
        <time>2013-06-21T10:47:49Z</time>
      </trkpt>
      <trkpt lat="50.52968" lon="1.58257">
        <ele>16.8</ele>
        <time>2013-06-21T10:47:49Z</time>
      </trkpt>
      <trkpt lat="50.53015" lon="1.58272">
        <ele>16.3</ele>
        <time>2013-06-21T10:47:49Z</time>
      </trkpt>
      <trkpt lat="50.53062" lon="1.58288">
        <ele>17</ele>
        <time>2013-06-21T10:47:49Z</time>
      </trkpt>
      <trkpt lat="50.53106" lon="1.58311">
        <ele>16.3</ele>
        <time>2013-06-21T10:47:49Z</time>
      </trkpt>
      <trkpt lat="50.53132" lon="1.58351">
        <ele>17.1</ele>
        <time>2013-06-21T10:47:49Z</time>
      </trkpt>
      <trkpt lat="50.53173" lon="1.58354">
        <ele>16</ele>
        <time>2013-06-21T10:47:49Z</time>
      </trkpt>
      <trkpt lat="50.53214" lon="1.58382">
        <ele>15.8</ele>
        <time>2013-06-21T10:47:49Z</time>
      </trkpt>
      <trkpt lat="50.53257" lon="1.5841">
        <ele>14.9</ele>
        <time>2013-06-21T10:47:49Z</time>
      </trkpt>
      <trkpt lat="50.53299" lon="1.58434">
        <ele>14.1</ele>
        <time>2013-06-21T10:47:49Z</time>
      </trkpt>
      <trkpt lat="50.5334" lon="1.58466">
        <ele>13.5</ele>
        <time>2013-06-21T10:47:49Z</time>
      </trkpt>
      <trkpt lat="50.53381" lon="1.585">
        <ele>13</ele>
        <time>2013-06-21T10:47:49Z</time>
      </trkpt>
      <trkpt lat="50.53425" lon="1.5853">
        <ele>12.8</ele>
        <time>2013-06-21T10:47:49Z</time>
      </trkpt>
      <trkpt lat="50.53468" lon="1.58568">
        <ele>12.3</ele>
        <time>2013-06-21T10:47:49Z</time>
      </trkpt>
      <trkpt lat="50.53512" lon="1.58607">
        <ele>11.8</ele>
        <time>2013-06-21T10:47:49Z</time>
      </trkpt>
      <trkpt lat="50.53554" lon="1.58644">
        <ele>11.9</ele>
        <time>2013-06-21T10:47:49Z</time>
      </trkpt>
      <trkpt lat="50.53591" lon="1.58673">
        <ele>11.4</ele>
        <time>2013-06-21T10:47:49Z</time>
      </trkpt>
      <trkpt lat="50.53634" lon="1.58708">
        <ele>10.9</ele>
        <time>2013-06-21T10:47:49Z</time>
      </trkpt>
      <trkpt lat="50.53674" lon="1.58736">
        <ele>10.4</ele>
        <time>2013-06-21T10:47:49Z</time>
      </trkpt>
      <trkpt lat="50.53718" lon="1.58766">
        <ele>10.4</ele>
        <time>2013-06-21T10:47:49Z</time>
      </trkpt>
      <trkpt lat="50.5376" lon="1.58794">
        <ele>10.2</ele>
        <time>2013-06-21T10:47:49Z</time>
      </trkpt>
      <trkpt lat="50.53796" lon="1.58834">
        <ele>11</ele>
        <time>2013-06-21T10:47:49Z</time>
      </trkpt>
      <trkpt lat="50.53831" lon="1.58875">
        <ele>10.9</ele>
        <time>2013-06-21T10:47:49Z</time>
      </trkpt>
      <trkpt lat="50.5386" lon="1.5894">
        <ele>10</ele>
        <time>2013-06-21T10:47:49Z</time>
      </trkpt>
      <trkpt lat="50.53851" lon="1.59029">
        <ele>7</ele>
        <time>2013-06-21T10:47:49Z</time>
      </trkpt>
      <trkpt lat="50.53825" lon="1.59096">
        <ele>7.7</ele>
        <time>2013-06-21T10:47:49Z</time>
      </trkpt>
      <trkpt lat="50.53802" lon="1.5916">
        <ele>8.3</ele>
        <time>2013-06-21T10:47:49Z</time>
      </trkpt>
      <trkpt lat="50.53812" lon="1.59132">
        <ele>7.5</ele>
        <time>2013-06-21T10:47:49Z</time>
      </trkpt>
      <trkpt lat="50.53817" lon="1.59126">
        <ele>6.7</ele>
        <time>2013-06-21T10:47:49Z</time>
      </trkpt>
      <trkpt lat="50.53778" lon="1.59149">
        <ele>9</ele>
        <time>2013-06-21T10:47:49Z</time>
      </trkpt>
      <trkpt lat="50.53746" lon="1.59202">
        <ele>8.6</ele>
        <time>2013-06-21T10:47:49Z</time>
      </trkpt>
      <trkpt lat="50.53715" lon="1.59246">
        <ele>7.9</ele>
        <time>2013-06-21T10:47:49Z</time>
      </trkpt>
      <trkpt lat="50.5367" lon="1.59244">
        <ele>6.9</ele>
        <time>2013-06-21T10:47:49Z</time>
      </trkpt>
      <trkpt lat="50.53624" lon="1.5922">
        <ele>8</ele>
        <time>2013-06-21T10:47:49Z</time>
      </trkpt>
      <trkpt lat="50.53588" lon="1.59174">
        <ele>8.6</ele>
        <time>2013-06-21T10:47:49Z</time>
      </trkpt>
      <trkpt lat="50.53558" lon="1.59122">
        <ele>8.9</ele>
        <time>2013-06-21T10:47:49Z</time>
      </trkpt>
      <trkpt lat="50.53523" lon="1.59075">
        <ele>9.8</ele>
        <time>2013-06-21T10:47:49Z</time>
      </trkpt>
      <trkpt lat="50.53485" lon="1.59045">
        <ele>8.5</ele>
        <time>2013-06-21T10:47:49Z</time>
      </trkpt>
      <trkpt lat="50.53449" lon="1.59002">
        <ele>8.9</ele>
        <time>2013-06-21T10:47:49Z</time>
      </trkpt>
      <trkpt lat="50.53415" lon="1.58951">
        <ele>9</ele>
        <time>2013-06-21T10:47:49Z</time>
      </trkpt>
      <trkpt lat="50.53378" lon="1.58906">
        <ele>9</ele>
        <time>2013-06-21T10:47:49Z</time>
      </trkpt>
      <trkpt lat="50.53341" lon="1.58863">
        <ele>9</ele>
        <time>2013-06-21T10:47:49Z</time>
      </trkpt>
      <trkpt lat="50.53302" lon="1.58817">
        <ele>9.1</ele>
        <time>2013-06-21T10:47:49Z</time>
      </trkpt>
      <trkpt lat="50.53262" lon="1.58774">
        <ele>8.9</ele>
        <time>2013-06-21T10:47:49Z</time>
      </trkpt>
      <trkpt lat="50.53223" lon="1.58731">
        <ele>9.6</ele>
        <time>2013-06-21T10:47:49Z</time>
      </trkpt>
      <trkpt lat="50.53191" lon="1.58698">
        <ele>9.8</ele>
        <time>2013-06-21T10:47:49Z</time>
      </trkpt>
      <trkpt lat="50.5315" lon="1.58657">
        <ele>9</ele>
        <time>2013-06-21T10:47:49Z</time>
      </trkpt>
      <trkpt lat="50.53116" lon="1.58612">
        <ele>9</ele>
        <time>2013-06-21T10:47:49Z</time>
      </trkpt>
      <trkpt lat="50.53076" lon="1.58575">
        <ele>9.4</ele>
        <time>2013-06-21T10:47:49Z</time>
      </trkpt>
      <trkpt lat="50.53036" lon="1.58529">
        <ele>9.3</ele>
        <time>2013-06-21T10:47:49Z</time>
      </trkpt>
      <trkpt lat="50.52996" lon="1.5849">
        <ele>9.5</ele>
        <time>2013-06-21T10:47:49Z</time>
      </trkpt>
      <trkpt lat="50.52961" lon="1.5845">
        <ele>9.7</ele>
        <time>2013-06-21T10:47:49Z</time>
      </trkpt>
      <trkpt lat="50.52924" lon="1.58418">
        <ele>9.8</ele>
        <time>2013-06-21T10:47:49Z</time>
      </trkpt>
      <trkpt lat="50.52889" lon="1.58376">
        <ele>9.5</ele>
        <time>2013-06-21T10:47:49Z</time>
      </trkpt>
      <trkpt lat="50.52849" lon="1.5834">
        <ele>10.4</ele>
        <time>2013-06-21T10:47:49Z</time>
      </trkpt>
      <trkpt lat="50.5281" lon="1.58301">
        <ele>8.8</ele>
        <time>2013-06-21T10:47:49Z</time>
      </trkpt>
      <trkpt lat="50.52773" lon="1.58263">
        <ele>8.6</ele>
        <time>2013-06-21T10:47:49Z</time>
      </trkpt>
      <trkpt lat="50.52732" lon="1.5823">
        <ele>9</ele>
        <time>2013-06-21T10:47:49Z</time>
      </trkpt>
      <trkpt lat="50.5269" lon="1.58202">
        <ele>9</ele>
        <time>2013-06-21T10:47:49Z</time>
      </trkpt>
      <trkpt lat="50.52648" lon="1.58179">
        <ele>9.3</ele>
        <time>2013-06-21T10:47:49Z</time>
      </trkpt>
      <trkpt lat="50.52603" lon="1.58158">
        <ele>9.3</ele>
        <time>2013-06-21T10:47:49Z</time>
      </trkpt>
      <trkpt lat="50.5256" lon="1.58165">
        <ele>10</ele>
        <time>2013-06-21T10:47:49Z</time>
      </trkpt>
      <trkpt lat="50.52516" lon="1.58195">
        <ele>10</ele>
        <time>2013-06-21T10:47:49Z</time>
      </trkpt>
      <trkpt lat="50.52487" lon="1.58238">
        <ele>10.6</ele>
        <time>2013-06-21T10:47:49Z</time>
      </trkpt>
      <trkpt lat="50.52464" lon="1.5828">
        <ele>11.4</ele>
        <time>2013-06-21T10:47:49Z</time>
      </trkpt>
      <trkpt lat="50.52449" lon="1.5833">
        <ele>12</ele>
        <time>2013-06-21T10:47:49Z</time>
      </trkpt>
      <trkpt lat="50.52427" lon="1.5838">
        <ele>12</ele>
        <time>2013-06-21T10:47:49Z</time>
      </trkpt>
      <trkpt lat="50.52407" lon="1.58434">
        <ele>11.8</ele>
        <time>2013-06-21T10:47:49Z</time>
      </trkpt>
      <trkpt lat="50.52393" lon="1.5848">
        <ele>11.9</ele>
        <time>2013-06-21T10:47:49Z</time>
      </trkpt>
      <trkpt lat="50.52368" lon="1.58534">
        <ele>12</ele>
        <time>2013-06-21T10:47:49Z</time>
      </trkpt>
      <trkpt lat="50.5237" lon="1.58554">
        <ele>12</ele>
        <time>2013-06-21T10:47:49Z</time>
      </trkpt>
      <trkpt lat="50.52343" lon="1.58608">
        <ele>12</ele>
        <time>2013-06-21T10:47:49Z</time>
      </trkpt>
      <trkpt lat="50.52328" lon="1.58663">
        <ele>12</ele>
        <time>2013-06-21T10:47:49Z</time>
      </trkpt>
      <trkpt lat="50.52305" lon="1.58722">
        <ele>11</ele>
        <time>2013-06-21T10:47:49Z</time>
      </trkpt>
      <trkpt lat="50.52286" lon="1.58776">
        <ele>9.3</ele>
        <time>2013-06-21T10:47:49Z</time>
      </trkpt>
      <trkpt lat="50.5225" lon="1.58746">
        <ele>9</ele>
        <time>2013-06-21T10:47:49Z</time>
      </trkpt>
      <trkpt lat="50.52208" lon="1.58719">
        <ele>8.5</ele>
        <time>2013-06-21T10:47:49Z</time>
      </trkpt>
      <trkpt lat="50.52168" lon="1.58692">
        <ele>8.1</ele>
        <time>2013-06-21T10:47:49Z</time>
      </trkpt>
      <trkpt lat="50.52127" lon="1.58661">
        <ele>9</ele>
        <time>2013-06-21T10:47:49Z</time>
      </trkpt>
      <trkpt lat="50.52083" lon="1.58642">
        <ele>9</ele>
        <time>2013-06-21T10:47:49Z</time>
      </trkpt>
      <trkpt lat="50.52036" lon="1.58631">
        <ele>10</ele>
        <time>2013-06-21T10:47:49Z</time>
      </trkpt>
      <trkpt lat="50.52023" lon="1.58572">
        <ele>10.3</ele>
        <time>2013-06-21T10:47:49Z</time>
      </trkpt>
      <trkpt lat="50.52019" lon="1.58498">
        <ele>11</ele>
        <time>2013-06-21T10:47:49Z</time>
      </trkpt>
      <trkpt lat="50.52031" lon="1.5843">
        <ele>12.1</ele>
        <time>2013-06-21T10:47:49Z</time>
      </trkpt>
      <trkpt lat="50.52043" lon="1.58367">
        <ele>13</ele>
        <time>2013-06-21T10:47:49Z</time>
      </trkpt>
      <trkpt lat="50.52051" lon="1.5834">
        <ele>13.6</ele>
        <time>2013-06-21T10:47:49Z</time>
      </trkpt>
      <trkpt lat="50.52067" lon="1.5836">
        <ele>13.4</ele>
        <time>2013-06-21T10:47:49Z</time>
      </trkpt>
      <trkpt lat="50.52058" lon="1.58356">
        <ele>13.3</ele>
        <time>2013-06-21T10:47:49Z</time>
      </trkpt>
      <trkpt lat="50.52049" lon="1.58371">
        <ele>13</ele>
        <time>2013-06-21T10:47:49Z</time>
      </trkpt>
      <trkpt lat="50.52032" lon="1.58363">
        <ele>13</ele>
        <time>2013-06-21T10:47:49Z</time>
      </trkpt>
      <trkpt lat="50.52032" lon="1.58361">
        <ele>13</ele>
        <time>2013-06-21T10:47:49Z</time>
      </trkpt>
      <trkpt lat="50.52032" lon="1.58359">
        <ele>13</ele>
        <time>2013-06-21T10:47:49Z</time>
      </trkpt>
      <trkpt lat="50.52032" lon="1.58356">
        <ele>13</ele>
        <time>2013-06-21T10:47:49Z</time>
      </trkpt>
      <trkpt lat="50.52033" lon="1.58354">
        <ele>13</ele>
        <time>2013-06-21T10:47:49Z</time>
      </trkpt>
      <trkpt lat="50.52034" lon="1.58352">
        <ele>13.1</ele>
        <time>2013-06-21T10:47:49Z</time>
      </trkpt>
      <trkpt lat="50.52035" lon="1.5835">
        <ele>13.1</ele>
        <time>2013-06-21T10:47:49Z</time>
      </trkpt>
      <trkpt lat="50.52036" lon="1.58348">
        <ele>13.1</ele>
        <time>2013-06-21T10:47:49Z</time>
      </trkpt>
      <trkpt lat="50.52037" lon="1.58346">
        <ele>13.2</ele>
        <time>2013-06-21T10:47:49Z</time>
      </trkpt>
      <trkpt lat="50.52039" lon="1.58344">
        <ele>13.2</ele>
        <time>2013-06-21T10:47:49Z</time>
      </trkpt>
      <trkpt lat="50.5204" lon="1.58341">
        <ele>13.3</ele>
        <time>2013-06-21T10:47:49Z</time>
      </trkpt>
      <trkpt lat="50.52042" lon="1.58338">
        <ele>13.4</ele>
        <time>2013-06-21T10:47:49Z</time>
      </trkpt>
      <trkpt lat="50.52043" lon="1.58336">
        <ele>13.5</ele>
        <time>2013-06-21T10:47:49Z</time>
      </trkpt>
      <trkpt lat="50.52044" lon="1.58332">
        <ele>13.6</ele>
        <time>2013-06-21T10:47:49Z</time>
      </trkpt>
      <trkpt lat="50.52046" lon="1.58328">
        <ele>13.6</ele>
        <time>2013-06-21T10:47:49Z</time>
      </trkpt>
      <trkpt lat="50.52046" lon="1.58325">
        <ele>13.6</ele>
        <time>2013-06-21T10:47:49Z</time>
      </trkpt>
      <trkpt lat="50.52048" lon="1.58323">
        <ele>13.7</ele>
        <time>2013-06-21T10:47:49Z</time>
      </trkpt>
      <trkpt lat="50.5205" lon="1.58321">
        <ele>13.8</ele>
        <time>2013-06-21T10:47:49Z</time>
      </trkpt>
      <trkpt lat="50.52054" lon="1.58319">
        <ele>13.9</ele>
        <time>2013-06-21T10:47:49Z</time>
      </trkpt>
      <trkpt lat="50.52055" lon="1.58318">
        <ele>14</ele>
        <time>2013-06-21T10:47:49Z</time>
      </trkpt>
      <trkpt lat="50.52055" lon="1.58317">
        <ele>14</ele>
        <time>2013-06-21T10:47:49Z</time>
      </trkpt>
      <trkpt lat="50.52055" lon="1.58319">
        <ele>14</ele>
        <time>2013-06-21T10:47:49Z</time>
      </trkpt>
      <trkpt lat="50.52057" lon="1.5832">
        <ele>14</ele>
        <time>2013-06-21T10:47:49Z</time>
      </trkpt>
    </trkseg>
  </trk>
</gpx>